sat.trackr.live / text

‹ back to catalog

STARLINK-2211

NORAD 47778 · 2021-017BJ

PAYLOAD ACTIVE UNKNOWN

§ Identity

Operator
Country
US
Launch date
2021-03-04
Launch site
AFETR
Launch vehicle
Mass (kg)
RCS (m²)

Purposes: comms

External: N2YO · Heavens-Above · Gunter

§ Orbital elements

Epoch: 2026-09-19T13:13:11.732736Z

Period
91.53 min
Inclination
53.1565°
Eccentricity
0.0005801
Mean motion
15.73294540 rev/d
Perigee alt
345.6 km
Apogee alt
353.4 km
Semi-major
6,727.6 km
B*
5.9466e-4
RAAN
352.5005°
Arg perigee
356.4071°
Mean anomaly
3.6905°
Rev number
30,797

§ Raw data

STARLINK-22111 47778U 21017BJ  26262.55083024  .00084089  00000+0  59466-3 0  99902 47778  53.1565 352.5005 0005801 356.4071   3.6905 15.73294540307979

JSON: /api/v1/satellites/47778 · /tle

For live sub-satellite position, see the globe view (requires WebGL).

§ Visibility from observer

Set your observer location to see the next 7 days of passes ≥ 10°. The values pass through the URL so the page stays shareable.

No JS? Fill the form by hand. The geolocation button needs JavaScript.